• In Hungary
  • List of Countries
  • For 7 days
  • Water Temperature
  • Satellite Maps
  • Weather Map
  • News
  • Weather Widgets
  • user-avatar
    Login

    Hourly Weather Podgorzyn

    Today, 22 October, Monday

    Time Temperature Precipitation Wind Pressure Humidity
    00:00 +6°C° 0 mm 1 mps 735 mmHg 86%
    01:00 +5°C° 0 mm 1 mps 735 mmHg 87%
    02:00 +5°C° 0 mm 1 mps 735 mmHg 87%
    03:00 +5°C° 0 mm 1 mps 735 mmHg 87%
    04:00 +5°C° 0 mm 1 mps 734 mmHg 88%
    05:00 +5°C° 0 mm 1 mps 734 mmHg 88%
    06:00 +5°C° 0 mm 1 mps 734 mmHg 88%
    07:00 +5°C° 0 mm 1 mps 734 mmHg 88%
    08:00 +7°C° 0 mm 1 mps 735 mmHg 78%
    09:00 +8°C° 0 mm 2 mps 735 mmHg 69%
    10:00 +10°C° 0 mm 2 mps 735 mmHg 60%
    11:00 +12°C° 0 mm 2 mps 735 mmHg 57%
    12:00 +12°C° 0 mm 3 mps 734 mmHg 54%
    13:00 +13°C° 0 mm 3 mps 734 mmHg 51%
    14:00 +12°C° 0 mm 3 mps 734 mmHg 56%
    15:00 +11°C° 0 mm 3 mps 734 mmHg 62%
    16:00 +11°C° 0 mm 3 mps 734 mmHg 68%
    17:00 +10°C° 0.3 mm 3 mps 734 mmHg 74%
    18:00 +8°C° 0.3 mm 4 mps 734 mmHg 81%
    19:00 +7°C° 0.3 mm 4 mps 735 mmHg 88%
    20:00 +6°C° 0 mm 4 mps 735 mmHg 87%
    21:00 +7°C° 0 mm 3 mps 735 mmHg 87%
    22:00 +5°C° 0 mm 3 mps 735 mmHg 87%
    23:00 +4°C° 0 mm 3 mps 735 mmHg 86%

    Tomorrow, 23 October, Tuesday

    Time Temperature Precipitation Wind Pressure Humidity
    00:00 +5°C° 0 mm 2 mps 735 mmHg 86%
    01:00 +4°C° 0 mm 2 mps 735 mmHg 85%
    02:00 +4°C° 0 mm 2 mps 735 mmHg 85%
    03:00 +4°C° 0 mm 2 mps 734 mmHg 86%
    04:00 +3°C° 0 mm 2 mps 734 mmHg 86%
    05:00 +2°C° 0 mm 3 mps 734 mmHg 86%
    06:00 +2°C° 0 mm 3 mps 733 mmHg 86%
    07:00 +2°C° 0 mm 3 mps 733 mmHg 86%
    08:00 +2°C° 0 mm 5 mps 732 mmHg 81%
    09:00 +3°C° 0 mm 6 mps 732 mmHg 75%
    10:00 +5°C° 0 mm 7 mps 731 mmHg 69%
    11:00 +5°C° 0.5 mm 7 mps 730 mmHg 70%
    12:00 +5°C° 0.5 mm 8 mps 729 mmHg 71%
    13:00 +5°C° 0.5 mm 9 mps 728 mmHg 72%
    14:00 +5°C° 0.6 mm 9 mps 727 mmHg 75%
    15:00 +5°C° 0.6 mm 9 mps 726 mmHg 77%
    16:00 +5°C° 0.6 mm 9 mps 725 mmHg 79%
    17:00 +6°C° 0.3 mm 9 mps 725 mmHg 80%
    18:00 +7°C° 0.3 mm 9 mps 724 mmHg 81%
    19:00 +7°C° 0.3 mm 10 mps 724 mmHg 81%
    20:00 +7°C° 0.3 mm 10 mps 724 mmHg 82%
    21:00 +8°C° 0.3 mm 10 mps 723 mmHg 82%
    22:00 +8°C° 0.3 mm 10 mps 723 mmHg 83%
    23:00 +8°C° 0.4 mm 10 mps 722 mmHg 82%

    Day after tomorrow, 24 October, Wednesday

    Time Temperature Precipitation Wind Pressure Humidity
    00:00 +8°C° 0.4 mm 10 mps 722 mmHg 82%
    01:00 +9°C° 0.4 mm 11 mps 721 mmHg 81%
    02:00 +9°C° 0.8 mm 11 mps 721 mmHg 82%
    03:00 +9°C° 0.8 mm 11 mps 721 mmHg 82%
    04:00 +9°C° 0.8 mm 11 mps 720 mmHg 82%
    05:00 +8°C° 1.2 mm 10 mps 721 mmHg 80%
    06:00 +7°C° 1.2 mm 9 mps 721 mmHg 78%
    07:00 +6°C° 1.2 mm 8 mps 722 mmHg 76%
    08:00 +5°C° 0.1 mm 9 mps 722 mmHg 72%
    09:00 +5°C° 0.1 mm 9 mps 723 mmHg 68%
    10:00 +5°C° 0.1 mm 9 mps 723 mmHg 64%
    11:00 +5°C° 0 mm 9 mps 724 mmHg 63%
    12:00 +5°C° 0 mm 9 mps 724 mmHg 61%
    13:00 +6°C° 0 mm 9 mps 724 mmHg 59%
    14:00 +5°C° 0 mm 8 mps 725 mmHg 59%
    15:00 +5°C° 0 mm 7 mps 725 mmHg 58%
    16:00 +5°C° 0 mm 7 mps 726 mmHg 58%
    17:00 +4°C° 0 mm 6 mps 726 mmHg 60%
    18:00 +3°C° 0 mm 5 mps 727 mmHg 63%
    19:00 +4°C° 0 mm 4 mps 728 mmHg 65%
    20:00 +3°C° 0 mm 4 mps 728 mmHg 67%
    21:00 +3°C° 0 mm 4 mps 729 mmHg 69%
    22:00 +1°C° 0 mm 4 mps 729 mmHg 71%
    23:00 +1°C° 0 mm 4 mps 729 mmHg 74%

    25 October, Thursday

    Time Temperature Precipitation Wind Pressure Humidity
    00:00 +2°C° 0 mm 3 mps 729 mmHg 77%
    01:00 +1°C° 0 mm 3 mps 730 mmHg 80%
    02:00 +1°C° 0 mm 3 mps 729 mmHg 82%
    03:00 +1°C° 0 mm 3 mps 729 mmHg 85%
    04:00 +1°C° 0 mm 3 mps 729 mmHg 87%
    05:00 +2°C° 0 mm 3 mps 729 mmHg 88%
    06:00 +2°C° 0 mm 3 mps 729 mmHg 89%
    07:00 +3°C° 0 mm 4 mps 729 mmHg 90%
    08:00 +4°C° 0.1 mm 4 mps 729 mmHg 89%
    09:00 +5°C° 0.1 mm 4 mps 729 mmHg 87%
    10:00 +6°C° 0.1 mm 4 mps 729 mmHg 86%
    11:00 +7°C° 0.1 mm 5 mps 729 mmHg 83%
    12:00 +8°C° 0.1 mm 5 mps 728 mmHg 80%
    13:00 +9°C° 0.1 mm 6 mps 728 mmHg 77%
    14:00 +9°C° 0.1 mm 5 mps 728 mmHg 78%
    15:00 +9°C° 0.1 mm 5 mps 727 mmHg 79%
    16:00 +9°C° 0.1 mm 5 mps 727 mmHg 80%
    17:00 +8°C° 0.1 mm 4 mps 727 mmHg 83%
    18:00 +8°C° 0.1 mm 4 mps 727 mmHg 87%
    19:00 +8°C° 0.1 mm 3 mps 727 mmHg 90%
    20:00 +8°C° 0 mm 3 mps 726 mmHg 90%
    21:00 +7°C° 0 mm 3 mps 726 mmHg 91%
    22:00 +7°C° 0 mm 3 mps 726 mmHg 91%
    23:00 +7°C° 0 mm 3 mps 726 mmHg 91%

    26 October, Friday

    Time Temperature Precipitation Wind Pressure Humidity
    00:00 +7°C° 0 mm 3 mps 726 mmHg 92%
    01:00 +7°C° 0 mm 2 mps 726 mmHg 92%
    02:00 +7°C° 0 mm 2 mps 725 mmHg 92%
    03:00 +7°C° 0 mm 2 mps 725 mmHg 92%
    04:00 +7°C° 0 mm 2 mps 725 mmHg 93%
    05:00 +7°C° 0 mm 2 mps 724 mmHg 93%
    06:00 +7°C° 0 mm 2 mps 724 mmHg 93%
    07:00 +5°C° 0 mm 3 mps 724 mmHg 93%
    08:00 +8°C° 0 mm 3 mps 724 mmHg 87%
    09:00 +9°C° 0 mm 3 mps 724 mmHg 81%
    10:00 +10°C° 0 mm 4 mps 723 mmHg 75%
    11:00 +11°C° 0 mm 4 mps 723 mmHg 72%
    12:00 +12°C° 0 mm 4 mps 722 mmHg 68%
    13:00 +12°C° 0 mm 4 mps 722 mmHg 65%
    14:00 +12°C° 0 mm 4 mps 721 mmHg 67%
    15:00 +11°C° 0 mm 3 mps 721 mmHg 69%
    16:00 +11°C° 0 mm 3 mps 720 mmHg 70%
    17:00 +10°C° 0 mm 2 mps 720 mmHg 74%
    18:00 +9°C° 0 mm 2 mps 720 mmHg 78%
    19:00 +8°C° 0 mm 2 mps 720 mmHg 81%
    20:00 +8°C° 0 mm 2 mps 720 mmHg 83%
    21:00 +8°C° 0 mm 2 mps 720 mmHg 85%
    22:00 +7°C° 0 mm 2 mps 720 mmHg 87%
    23:00 +7°C° 0 mm 2 mps 720 mmHg 88%

    27 October, Saturday

    Time Temperature Precipitation Wind Pressure Humidity
    00:00 +7°C° 0 mm 2 mps 720 mmHg 88%
    01:00 +7°C° 0 mm 2 mps 720 mmHg 89%
    02:00 +8°C° 0 mm 1 mps 719 mmHg 90%
    03:00 +8°C° 0 mm 1 mps 719 mmHg 91%
    04:00 +8°C° 0 mm 1 mps 719 mmHg 92%
    05:00 +8°C° 0.2 mm 1 mps 718 mmHg 92%
    06:00 +8°C° 0.2 mm 1 mps 718 mmHg 92%
    07:00 +8°C° 0.2 mm 1 mps 718 mmHg 92%
    08:00 +8°C° 0.6 mm 1 mps 717 mmHg 91%
    09:00 +8°C° 0.6 mm 2 mps 717 mmHg 89%
    10:00 +8°C° 0.6 mm 2 mps 717 mmHg 88%
    11:00 +8°C° 1.2 mm 2 mps 716 mmHg 89%
    12:00 +8°C° 1.2 mm 2 mps 716 mmHg 90%
    13:00 +7°C° 1.2 mm 3 mps 716 mmHg 91%
    14:00 +7°C° 0.8 mm 3 mps 716 mmHg 90%
    15:00 +5°C° 0.8 mm 3 mps 716 mmHg 89%
    16:00 +4°C° 0.8 mm 4 mps 716 mmHg 88%
    17:00 +4°C° 1.1 mm 4 mps 716 mmHg 87%
    18:00 +4°C° 1.1 mm 3 mps 716 mmHg 86%
    19:00 +3°C° 1.1 mm 3 mps 717 mmHg 86%
    20:00 +3°C° 0.6 mm 3 mps 717 mmHg 85%
    21:00 +4°C° 0.6 mm 2 mps 717 mmHg 85%
    22:00 +4°C° 0.6 mm 2 mps 718 mmHg 85%
    23:00 +4°C° 0.3 mm 2 mps 718 mmHg 85%
    Show more